Simultaneous Nadir Overpasses (SNOs) Predictions

Prediction of SNOs between AQUA and METOP-A Satellite Orbit:

Table of predicted SNOs for the next 14.0 days since TLE Epoch: 10/31/2020
Index Date (AQUA) Time (AQUA) Lat,Lon (AQUA) SZA (AQUA ) Date (METOP-A) Time (METOP-A) Lat,Lon (METOP-A) SZA (METOP-A ) Distance(km) Time Diff (sec)
1 10/31/2020 20:34:33 76.71,-142.13 91.26 10/31/2020 20:33:31 76.71,-142.10 91.27 0.77 62
2 10/31/2020 21:24:00 -76.75, 25.35 88.68 10/31/2020 21:24:12 -76.72, 25.29 88.71 3.38 12
3 10/31/2020 22:13:36 77.17,-168.56 91.81 10/31/2020 22:14:42 77.18,-165.60 91.71 73.21 66
4 11/03/2020 16:08:48 76.69, -75.66 92.13 11/03/2020 16:07:54 76.70, -75.77 92.16 3.04 54
5 11/03/2020 16:58:15 -76.74, 91.83 87.81 11/03/2020 16:58:34 -76.77, 91.80 87.78 3.29 19
6 11/06/2020 11:43:04 76.74, -9.37 93.03 11/06/2020 11:42:16 76.74, -9.28 93.04 2.43 48
7 11/06/2020 12:32:31 -76.78, 158.11 86.91 11/06/2020 12:32:57 -76.76, 158.13 86.93 2.06 26
8 11/09/2020 07:17:19 76.74, 57.06 93.85 11/09/2020 07:16:39 76.73, 57.03 93.86 0.89 40
9 11/09/2020 08:06:46 -76.78,-135.46 86.09 11/09/2020 08:07:19 -76.80,-135.38 86.08 2.79 33
10 11/12/2020 02:51:33 76.75, 123.46 94.64 11/12/2020 02:51:00 76.77, 123.51 94.67 2.32 33
11 11/12/2020 03:41:00 -76.80, -69.06 85.30 11/12/2020 03:41:41 -76.79, -69.07 85.31 0.41 41
